Date,TemperatureHighF,TemperatureAvgF,TemperatureLowF,DewpointHighF,DewpointAvgF,DewpointLowF,HumidityHigh,HumidityAvg,HumidityLow,PressureMaxIn,PressureMinIn,WindSpeedMaxMPH,WindSpeedAvgMPH,GustSpeedMaxMPH,PrecipitationSumIn
2013-1-1,47.4,38.6,31.1,28.0,21.5,15.0,73,52,32,30.26,30.13,4,0,14,0.00
2013-1-2,49.7,38.0,27.6,22.0,15.5,12.0,64,42,27,30.29,30.13,14,1,14,0.00
2013-1-3,37.4,32.4,29.4,30.0,25.0,15.0,92,76,44,30.42,30.21,11,2,16,0.01
2013-1-4,35.1,31.7,29.0,30.0,27.3,25.0,89,83,78,30.49,30.38,4,0,8,0.15
2013-1-5,38.0,31.1,26.6,30.0,26.8,24.0,89,84,72,30.50,30.41,6,1,12,0.01
2013-1-6,49.4,36.5,24.7,31.0,26.1,22.0,90,69,37,30.55,30.18,7,0,10,0.01
2013-1-7,56.6,45.3,36.1,35.0,31.2,28.0,73,59,42,30.18,29.83,10,2,12,0.00
2013-1-8,58.5,47.5,39.1,35.0,30.4,19.0,81,54,33,30.05,29.82,6,0,9,0.00
2013-1-9,56.2,47.6,38.4,29.0,25.8,18.0,54,43,29,30.24,30.06,6,1,15,0.00
2013-1-10,60.4,46.4,31.6,38.0,30.5,25.0,76,56,35,30.09,29.86,7,1,10,0.00
2013-1-11,53.5,46.6,36.5,38.0,26.7,15.0,83,48,32,29.85,29.76,7,1,19,0.00
2013-1-12,44.3,37.1,30.9,15.0,11.0,5.0,50,35,25,30.11,29.83,13,2,22,0.00
2013-1-13,42.5,32.8,21.3,15.0,8.4,5.0,54,37,23,30.22,30.05,5,0,10,0.00
2013-1-14,45.2,34.0,25.3,22.0,14.9,3.0,78,49,26,30.16,30.04,7,1,11,0.00
2013-1-15,40.6,31.4,25.3,15.0,6.8,-3.0,62,38,19,30.45,30.13,5,1,13,0.00
2013-1-16,46.8,34.3,21.9,10.0,5.3,-1.0,42,30,22,30.55,30.43,2,0,11,0.00
2013-1-17,57.8,42.1,25.7,25.0,16.3,6.0,49,36,26,30.58,30.39,9,1,13,0.00
2013-1-18,59.6,44.7,30.6,25.0,21.5,19.0,67,43,22,30.39,30.21,3,0,7,0.00
2013-1-19,64.7,47.5,31.1,25.0,20.9,16.0,57,37,22,30.34,30.18,3,0,9,0.00
2013-1-20,66.0,48.2,32.3,20.0,16.8,13.0,48,31,16,30.26,30.09,2,0,7,0.00
2013-1-21,67.6,50.6,37.5,17.0,14.4,11.0,36,25,14,30.23,30.08,4,0,11,0.00
2013-1-22,67.7,52.5,38.6,20.0,16.2,12.0,35,25,16,30.24,30.12,4,0,8,0.00
2013-1-23,70.9,53.6,36.9,25.0,19.1,13.0,39,27,16,30.32,30.17,2,0,5,0.00
2013-1-24,71.1,56.6,40.3,33.0,26.1,18.0,41,32,22,30.24,30.09,5,0,6,0.00
2013-1-25,63.2,55.9,50.1,44.0,38.2,32.0,61,52,40,30.16,30.01,1,0,5,0.00
2013-1-26,67.8,57.8,49.4,49.0,43.5,40.0,71,60,44,30.04,29.85,5,0,8,0.00
2013-1-27,66.5,56.9,50.0,47.0,44.1,40.0,83,64,43,29.95,29.84,7,1,14,0.00
2013-1-28,66.1,55.0,44.4,41.0,37.2,33.0,79,54,31,29.89,29.73,11,2,18,0.00
2013-1-29,50.4,42.0,37.7,35.0,23.0,14.0,69,49,31,30.05,29.74,22,5,34,0.00
2013-1-30,52.8,42.6,32.7,22.0,15.3,10.0,58,36,19,30.30,30.05,9,1,20,0.00
2013-1-31,59.0,43.9,31.0,23.0,18.0,12.0,51,37,24,30.33,30.20,7,0,7,0.00
2013-2-1,64.0,48.1,33.3,22.0,19.0,16.0,50,33,20,30.28,30.13,5,0,6,0.00
2013-2-2,67.6,52.6,37.2,24.0,18.7,15.0,41,28,17,30.32,30.19,5,0,15,0.00
2013-2-3,63.8,53.7,42.7,32.0,21.2,15.0,42,29,20,30.22,29.89,3,0,7,0.00
2013-2-4,66.8,57.2,49.9,36.0,32.7,29.0,50,40,31,29.98,29.85,7,1,10,0.00
2013-2-5,68.7,54.5,40.6,34.0,30.3,26.0,65,42,26,30.00,29.85,5,0,11,0.00
2013-2-6,68.7,56.1,43.6,34.0,29.9,26.0,56,39,22,29.92,29.79,11,1,17,0.00
2013-2-7,66.4,55.7,44.3,34.0,28.7,21.0,59,37,23,30.02,29.90,3,1,9,0.00
2013-2-8,70.5,56.5,44.8,31.0,27.7,23.0,50,35,18,30.03,29.74,9,3,16,0.00
2013-2-9,64.6,51.7,42.5,29.0,21.2,15.0,42,31,16,29.87,29.61,23,4,27,0.00
2013-2-10,56.1,45.1,34.1,20.0,16.3,12.0,52,33,19,29.99,29.88,7,1,13,0.00
2013-2-11,62.5,47.7,32.9,30.0,15.1,10.0,57,28,18,30.00,29.83,9,1,13,0.00
2013-2-12,54.1,43.4,34.8,34.0,20.3,8.0,80,45,17,30.15,29.93,7,1,21,0.02
2013-2-13,55.9,43.4,28.3,17.0,12.6,8.0,46,30,19,30.21,30.05,10,1,14,0.00
2013-2-14,63.1,47.4,31.0,21.0,15.5,9.0,42,29,19,30.15,29.97,6,1,13,0.00
2013-2-15,58.5,47.1,38.2,29.0,24.3,14.0,62,42,29,30.34,30.13,7,1,10,0.00
2013-2-16,62.5,47.5,32.9,24.0,18.6,11.0,60,35,17,30.43,30.13,5,0,7,0.00
2013-2-17,70.0,52.9,33.9,19.0,13.9,10.0,39,23,12,30.13,29.76,16,2,21,0.00
2013-2-18,66.1,56.6,45.6,18.0,12.5,8.0,26,18,12,29.98,29.82,7,1,20,0.00
2013-2-19,58.4,49.5,40.9,46.0,27.2,7.0,91,50,18,29.95,29.77,12,2,17,0.29
2013-2-20,63.0,49.7,37.8,44.0,33.3,24.0,87,59,24,29.77,29.49,21,3,33,0.00
2013-2-21,51.5,41.4,32.5,27.0,24.0,21.0,73,52,32,29.96,29.74,22,5,25,0.00
2013-2-22,56.0,45.5,33.9,26.0,24.4,22.0,70,46,28,30.07,29.94,13,2,21,0.00
2013-2-23,59.0,48.1,34.4,24.0,21.0,15.0,54,35,25,30.07,29.75,8,1,15,0.00
2013-2-24,62.5,47.2,36.1,25.0,19.7,10.0,50,35,18,29.86,29.52,26,4,36,0.00
2013-2-25,55.0,42.4,30.6,18.0,14.0,11.0,47,33,21,30.11,29.88,8,1,17,0.00
2013-2-26,65.5,50.2,37.5,17.0,10.7,4.0,35,22,10,29.99,29.77,18,3,25,0.00
2013-2-27,55.0,44.9,31.8,15.0,8.1,2.0,34,23,15,30.24,30.00,9,1,15,0.00
2013-2-28,59.5,46.4,34.0,19.0,14.7,11.0,49,30,15,30.32,30.21,3,0,10,0.00
2013-3-1,66.5,52.7,36.0,19.0,12.9,7.0,32,21,15,30.34,30.20,6,0,10,0.00
2013-3-2,70.9,56.3,39.8,23.0,18.7,14.0,37,24,15,30.34,30.10,4,0,12,0.00
2013-3-3,80.9,63.1,43.9,20.0,16.0,7.0,34,19,6,30.10,29.76,16,2,25,0.00
2013-3-4,78.3,65.2,51.7,35.0,21.1,13.0,26,19,10,29.90,29.59,20,3,35,0.00
2013-3-5,64.9,53.2,42.1,29.0,26.2,23.0,53,36,25,30.21,29.90,10,3,16,0.00
2013-3-6,77.3,62.1,48.0,31.0,27.3,24.0,39,28,18,30.14,29.86,8,2,11,0.00
2013-3-7,77.4,66.4,53.0,31.0,26.8,24.0,35,23,15,29.89,29.74,10,2,19,0.00
2013-3-8,69.5,63.1,55.7,48.0,38.5,26.0,56,41,22,29.83,29.64,18,3,22,0.00
2013-3-9,60.7,51.7,44.2,38.0,28.2,21.0,63,42,22,29.92,29.68,23,4,25,0.00
2013-3-10,58.1,47.9,36.4,30.0,25.6,22.0,70,44,27,30.14,29.91,12,1,13,0.00
2013-3-11,66.6,52.9,38.1,26.0,21.0,16.0,42,30,18,30.18,29.97,10,1,15,0.00
2013-3-12,72.4,57.3,42.1,26.0,20.7,16.0,36,25,16,30.14,29.99,7,2,13,0.00
2013-3-13,76.6,61.3,44.8,28.0,23.0,17.0,42,25,11,30.24,30.05,7,2,12,0.00
2013-3-14,81.3,65.3,48.1,22.0,18.7,15.0,28,18,10,30.18,30.00,6,1,6,0.00
2013-3-15,85.7,67.6,51.6,21.0,16.9,14.0,25,15,8,30.01,29.77,9,1,13,0.00
2013-3-16,85.2,70.8,54.6,26.0,18.5,13.0,22,14,7,29.77,29.55,15,3,20,0.00
2013-3-17,80.0,69.5,58.5,26.0,20.7,16.0,25,16,12,29.70,29.54,15,4,26,0.00
2013-3-18,76.9,67.0,57.1,30.0,22.0,17.0,26,18,11,29.86,29.71,17,2,17,0.00
2013-3-19,79.2,65.8,50.0,27.0,22.0,16.0,27,19,13,29.95,29.76,9,2,20,0.00
2013-3-20,71.5,61.1,49.7,37.0,31.8,23.0,50,35,24,30.08,29.77,11,3,18,0.00
2013-3-21,82.3,68.4,54.1,33.0,28.2,21.0,38,24,11,29.76,29.50,19,2,25,0.00
2013-3-22,78.2,67.8,54.6,34.0,27.7,24.0,32,23,16,29.64,29.45,18,4,26,0.00
2013-3-23,74.0,64.4,52.5,30.0,18.9,-3.0,33,19,9,29.84,29.59,17,4,34,0.00
2013-3-24,65.1,50.1,34.4,12.0,6.1,-6.0,29,17,10,30.06,29.82,13,2,13,0.00
2013-3-25,61.8,50.6,40.9,15.0,11.7,7.0,27,21,16,30.15,29.90,10,3,13,0.00
2013-3-26,71.7,56.0,40.2,22.0,17.7,12.0,32,23,15,30.21,29.93,10,2,17,0.00
2013-3-27,78.4,63.9,51.1,31.0,24.5,18.0,31,23,15,29.97,29.82,9,2,11,0.00
2013-3-28,80.8,68.2,52.8,33.0,28.6,22.0,30,23,18,29.97,29.82,13,1,17,0.00
2013-3-29,83.6,71.7,58.4,31.0,25.7,20.0,28,19,12,29.94,29.80,7,1,16,0.00
2013-3-30,83.8,70.7,54.7,31.0,24.1,17.0,25,18,12,29.92,29.75,11,1,20,0.00
2013-3-31,81.8,70.4,57.3,32.0,27.8,24.0,29,21,15,29.85,29.73,6,1,13,0.00
2013-4-1,82.7,70.4,56.2,34.0,27.1,18.0,42,22,10,29.86,29.66,15,2,18,0.00
2013-4-2,83.1,69.7,57.3,31.0,22.2,14.0,27,17,10,29.75,29.56,11,2,20,0.00
2013-4-3,74.4,59.0,44.9,38.0,33.5,16.0,66,42,15,29.97,29.73,8,1,13,0.00
2013-4-4,78.9,65.1,50.3,34.0,27.8,17.0,49,28,12,30.07,29.90,6,1,13,0.00
2013-4-5,84.9,72.0,59.8,31.0,22.8,15.0,27,17,9,29.94,29.65,15,3,20,0.00
2013-4-6,84.0,72.2,59.5,33.0,27.6,24.0,28,20,12,29.79,29.62,12,2,20,0.00
2013-4-7,83.2,73.1,61.0,33.0,27.4,23.0,25,19,12,29.73,29.52,11,3,20,0.00
2013-4-8,85.2,73.7,64.0,31.0,26.5,21.0,29,18,10,29.56,29.26,15,5,28,0.00
2013-4-9,71.0,59.9,52.2,36.0,27.6,21.0,52,31,17,29.76,29.27,18,4,25,0.00
2013-4-10,66.5,57.0,46.0,33.0,27.1,22.0,57,34,19,29.87,29.74,13,3,22,0.00
2013-4-11,74.9,58.7,44.5,25.0,22.3,20.0,41,26,14,29.86,29.67,8,1,14,0.00
2013-4-12,80.4,65.9,53.1,27.0,21.4,17.0,28,19,12,29.76,29.59,7,1,10,0.00
2013-4-13,83.1,71.2,58.1,30.0,24.3,21.0,25,18,11,29.65,29.49,10,1,19,0.00
2013-4-14,82.0,71.5,61.4,32.0,26.6,22.0,26,19,12,29.62,29.46,19,4,28,0.00
2013-4-15,84.2,73.7,61.8,32.0,27.1,22.0,31,19,11,29.64,29.51,22,7,26,0.00
2013-4-16,86.0,73.9,57.8,33.0,24.4,20.0,27,17,9,29.68,29.52,17,3,22,0.00
2013-4-17,81.4,69.0,57.3,31.0,23.9,17.0,28,19,10,29.73,29.44,18,5,34,0.00
2013-4-18,67.9,57.0,47.1,24.0,17.3,5.0,37,23,10,30.07,29.73,11,1,19,0.00
2013-4-19,68.2,55.1,40.3,10.0,5.9,2.0,21,14,8,30.22,29.96,8,1,13,0.00
2013-4-20,81.0,62.9,44.2,17.0,9.8,3.0,21,13,7,29.95,29.70,13,2,22,0.00
2013-4-21,83.0,70.4,54.7,25.0,19.2,13.0,20,15,10,29.94,29.76,12,1,17,0.00
2013-4-22,87.7,73.2,56.7,24.0,18.8,15.0,20,13,8,29.84,29.60,16,3,19,0.00
2013-4-23,86.8,74.7,58.0,28.0,20.6,16.0,32,14,8,29.82,29.54,17,3,22,0.00
2013-4-24,75.7,59.4,40.9,32.0,28.5,24.0,53,33,18,30.04,29.83,11,2,19,0.00
2013-4-25,85.6,69.7,55.3,43.0,32.4,18.0,39,28,10,29.98,29.70,15,2,15,0.00
2013-4-26,83.8,72.4,59.7,28.0,21.3,15.0,26,15,9,29.93,29.79,10,1,16,0.00
2013-4-27,86.1,72.4,56.6,30.0,23.5,13.0,33,17,9,29.97,29.77,6,0,11,0.00
2013-4-28,86.4,73.8,58.2,44.0,32.6,25.0,40,23,12,29.82,29.62,5,0,13,0.00
2013-4-29,91.8,75.4,59.0,44.0,28.2,15.0,48,22,7,29.69,29.50,9,1,15,0.00
2013-4-30,94.0,79.6,64.8,29.0,20.9,15.0,16,12,7,29.60,29.47,9,1,22,0.00
2013-5-1,88.5,78.5,67.7,30.0,23.3,18.0,19,13,8,29.74,29.54,11,2,19,0.00
2013-5-2,71.5,56.2,47.7,37.0,26.9,19.0,52,34,16,30.33,29.75,15,6,21,0.00
2013-5-3,69.4,55.3,40.1,22.0,18.8,12.0,46,26,14,30.38,29.94,11,2,13,0.00
2013-5-4,85.5,67.8,49.7,30.0,20.0,11.0,23,16,12,29.94,29.68,9,2,14,0.00
2013-5-5,84.5,72.5,61.1,34.0,26.3,21.0,21,18,15,29.90,29.68,10,2,18,0.00
2013-5-6,83.3,73.5,65.2,41.0,32.2,25.0,34,22,16,29.80,29.69,10,2,19,0.00
2013-5-7,82.6,73.0,62.6,37.0,31.7,28.0,29,22,15,29.84,29.67,16,3,20,0.00
2013-5-8,81.2,72.7,61.9,34.0,29.3,25.0,31,21,13,29.84,29.69,15,2,22,0.00
2013-5-9,81.9,72.3,60.7,33.0,27.6,24.0,29,19,13,29.81,29.69,13,2,18,0.00
2013-5-10,79.3,67.1,55.9,52.0,39.4,29.0,82,40,21,29.99,29.76,16,3,27,0.32
2013-5-11,75.6,63.5,51.7,48.0,43.7,35.0,75,52,24,30.14,29.99,10,2,18,0.00
2013-5-12,78.4,68.1,54.6,43.0,38.1,33.0,57,36,21,30.14,29.95,8,1,14,0.00
2013-5-13,83.0,71.5,58.7,39.0,34.6,30.0,45,28,15,30.08,29.89,5,1,12,0.00
2013-5-14,86.2,72.6,61.4,45.0,41.5,37.0,49,34,19,29.94,29.73,6,2,16,0.00
2013-5-15,93.5,78.8,62.1,43.0,37.3,32.0,44,25,14,29.80,29.60,8,2,24,0.00
2013-5-16,93.9,82.5,69.0,37.0,32.4,28.0,27,17,10,29.72,29.55,10,1,19,0.00
2013-5-17,93.8,81.0,66.4,35.0,30.5,24.0,25,17,11,29.69,29.57,11,1,15,0.00
2013-5-18,89.2,80.2,70.4,36.0,27.1,19.0,21,15,8,29.72,29.55,16,3,22,0.00
2013-5-19,88.8,78.0,64.3,36.0,27.8,22.0,24,16,9,29.71,29.51,16,2,22,0.00
2013-5-20,89.7,79.2,64.7,36.0,30.1,25.0,28,17,10,29.69,29.49,16,3,22,0.00
2013-5-21,89.0,76.2,61.0,35.0,28.4,22.0,32,18,10,29.76,29.61,12,2,15,0.00
2013-5-22,92.3,79.7,61.9,30.0,24.6,19.0,21,14,9,29.70,29.54,11,2,20,0.00
2013-5-23,96.4,82.1,68.7,51.0,34.6,23.0,50,20,11,29.69,29.50,11,3,23,0.00
2013-5-24,95.5,79.5,65.3,53.0,48.4,40.0,59,36,19,29.79,29.62,10,2,18,0.00
2013-5-25,95.4,83.0,70.6,56.0,45.1,30.0,56,32,10,29.76,29.60,10,2,28,0.00
2013-5-26,93.7,82.9,66.8,51.0,36.7,18.0,51,23,9,29.77,29.59,13,2,18,0.00
2013-5-27,95.1,82.3,68.9,29.0,23.6,18.0,16,12,7,29.68,29.50,9,1,17,0.00
2013-5-28,93.0,82.8,69.9,29.0,23.1,17.0,18,11,7,29.53,29.35,11,2,20,0.00
2013-5-29,88.8,80.2,71.2,37.0,29.9,17.0,23,16,9,29.52,29.39,19,3,23,0.00
2013-5-30,93.0,82.2,71.3,45.0,37.1,31.0,28,20,14,29.65,29.49,14,3,20,0.00
2013-5-31,96.5,85.6,72.4,43.0,37.0,29.0,26,18,13,29.66,29.49,11,2,17,0.00
2013-6-1,97.6,86.8,73.4,45.0,32.2,20.0,28,14,10,29.67,29.53,17,3,21,0.00
2013-6-2,96.0,79.9,70.8,61.0,51.3,44.0,69,38,24,29.74,29.50,19,4,29,0.02
2013-6-3,97.8,80.6,65.5,57.0,50.6,38.0,73,41,13,29.74,29.55,11,2,18,0.00
2013-6-4,99.6,86.7,70.4,47.0,39.4,30.0,39,21,10,29.68,29.52,16,1,19,0.00
2013-6-5,98.1,86.4,72.6,43.0,35.6,29.0,29,18,9,29.65,29.50,9,1,17,0.00
2013-6-6,93.0,81.6,70.3,50.0,46.1,29.0,45,30,16,29.69,29.56,12,2,19,0.00
2013-6-7,94.3,79.2,69.1,60.0,54.3,41.0,68,45,20,29.72,29.51,15,2,23,0.10
2013-6-8,100.6,83.3,66.7,55.0,46.9,32.0,61,34,12,29.66,29.46,8,1,14,0.00
2013-6-9,99.0,88.3,76.2,56.0,47.0,31.0,39,25,12,29.62,29.48,8,1,13,0.00
2013-6-10,103.4,89.2,74.9,54.0,49.2,39.0,40,27,15,29.70,29.53,8,1,12,0.00
2013-6-11,105.7,90.7,74.7,50.0,44.7,35.0,36,22,12,29.68,29.50,7,1,11,0.00
2013-6-12,105.0,90.6,76.2,55.0,46.5,37.0,39,23,12,29.66,29.51,10,2,15,0.00
2013-6-13,97.4,85.3,74.8,60.0,55.8,48.0,58,39,19,29.68,29.55,16,3,18,0.00
2013-6-14,96.8,80.4,70.8,67.0,57.0,54.0,73,47,25,29.72,29.55,14,1,24,0.11
2013-6-15,98.9,84.5,70.1,62.0,54.8,47.0,71,41,18,29.76,29.60,7,1,13,0.01
2013-6-16,100.4,88.6,75.5,57.0,51.4,49.0,45,29,19,29.73,29.57,7,1,20,0.00
2013-6-17,101.6,88.5,77.3,59.0,52.9,49.0,48,31,18,29.68,29.52,13,2,17,0.00
2013-6-18,100.2,85.1,70.6,61.0,55.5,48.0,64,39,18,29.73,29.56,9,2,17,0.00
2013-6-19,103.0,90.5,78.9,61.0,51.9,40.0,50,30,12,29.61,29.44,12,3,20,0.00
2013-6-20,100.2,88.1,78.9,54.0,49.8,41.0,41,28,14,29.67,29.50,13,4,27,0.00
2013-6-21,100.2,86.0,73.2,55.0,51.6,47.0,51,33,17,29.71,29.54,11,3,26,0.00
2013-6-22,100.3,88.8,76.5,58.0,48.6,36.0,49,28,14,29.68,29.48,12,3,19,0.00
2013-6-23,99.7,89.4,74.1,54.0,44.3,35.0,46,23,12,29.62,29.46,12,2,16,0.00
2013-6-24,100.6,91.2,78.7,51.0,44.5,38.0,27,20,16,29.64,29.49,10,2,15,0.00
2013-6-25,101.0,90.7,77.1,52.0,41.6,31.0,36,19,13,29.69,29.56,7,2,16,0.00
2013-6-26,104.7,90.8,76.2,36.0,29.6,24.0,20,12,6,29.73,29.59,7,1,12,0.00
2013-6-27,106.4,90.5,76.7,45.0,30.0,21.0,19,12,7,29.72,29.59,5,1,10,0.00
2013-6-28,99.5,89.8,79.7,47.0,43.7,40.0,29,20,14,29.80,29.66,9,2,13,0.00
2013-6-29,102.7,89.1,76.3,50.0,45.9,42.0,33,23,14,29.78,29.59,9,2,17,0.00
2013-6-30,97.9,88.2,79.9,56.0,50.2,46.0,41,28,19,29.72,29.55,11,2,16,0.00
2013-7-1,83.7,74.9,66.8,62.0,58.6,55.0,84,59,38,29.96,29.78,9,2,15,0.04
2013-7-2,88.1,77.3,66.2,61.0,53.3,48.0,79,47,26,29.99,29.77,12,2,19,0.01
2013-7-3,94.3,81.7,68.4,60.0,53.8,48.0,75,42,22,29.87,29.61,5,0,18,0.00
2013-7-4,96.2,83.2,70.2,56.0,52.4,48.0,55,37,21,29.69,29.53,5,1,12,0.00
2013-7-5,98.4,88.5,74.7,56.0,51.9,47.0,47,30,18,29.65,29.47,7,1,11,0.00
2013-7-6,101.3,87.4,76.7,59.0,56.0,50.0,54,36,20,29.60,29.44,7,1,15,0.00
2013-7-7,101.0,90.8,80.3,56.0,53.1,49.0,39,28,21,29.61,29.49,10,2,18,0.00
2013-7-8,97.6,86.7,78.7,57.0,53.9,51.0,43,33,21,29.74,29.62,12,2,18,0.00
2013-7-9,99.2,87.8,76.6,60.0,56.6,51.0,54,36,20,29.81,29.62,13,2,17,0.00
2013-7-10,97.0,86.9,75.9,60.0,58.2,55.0,57,39,26,29.80,29.61,8,2,15,0.00
2013-7-11,98.1,87.7,78.9,62.0,57.1,54.0,51,36,27,29.73,29.58,7,1,18,0.00
2013-7-12,99.6,87.1,77.3,59.0,55.2,52.0,53,35,22,29.70,29.54,9,1,13,0.00
2013-7-13,98.8,87.6,75.8,60.0,55.5,46.0,55,35,22,29.72,29.57,7,1,13,0.00
2013-7-14,102.6,88.9,77.1,62.0,54.5,49.0,52,33,20,29.70,29.49,11,1,14,0.00
2013-7-15,82.4,75.8,69.3,60.0,57.4,52.0,63,53,45,29.86,29.58,12,2,22,0.01
2013-7-16,85.8,76.4,67.7,55.0,53.0,49.0,64,46,29,29.92,29.81,9,2,13,0.00
2013-7-17,74.9,70.7,67.4,63.0,58.5,54.0,86,66,49,30.00,29.91,10,2,18,0.00
2013-7-18,75.2,68.8,65.0,67.0,64.2,61.0,93,85,71,30.00,29.88,8,1,10,0.18
2013-7-19,81.6,73.3,67.0,68.0,64.6,63.0,93,76,54,29.92,29.75,7,1,12,0.04
2013-7-20,85.4,77.2,67.7,66.0,63.3,59.0,87,64,45,29.81,29.63,7,1,15,0.00
2013-7-21,92.8,80.5,70.1,63.0,60.8,58.0,76,53,32,29.75,29.59,7,1,12,0.00
2013-7-22,94.9,79.6,71.3,65.0,62.9,60.0,74,59,31,29.74,29.60,10,2,17,0.04
2013-7-23,91.9,79.9,71.7,64.0,62.2,59.0,69,56,38,29.77,29.61,10,2,15,0.00
2013-7-24,93.3,80.9,71.2,66.0,63.7,60.0,82,59,34,29.80,29.64,11,1,15,0.00
2013-7-25,90.5,77.9,66.2,67.0,64.2,61.0,92,65,42,29.89,29.77,10,1,17,0.24
2013-7-26,97.0,82.1,75.1,67.0,65.0,62.0,76,57,35,29.87,29.75,9,1,18,0.00
2013-7-27,84.3,75.4,66.5,67.0,64.9,62.0,92,72,49,29.92,29.75,8,1,22,0.69
2013-7-28,92.4,78.3,69.0,66.0,63.6,60.0,84,62,38,29.80,29.62,13,1,27,0.02
2013-7-29,98.4,84.8,73.0,65.0,61.0,54.0,75,48,24,29.77,29.69,9,1,12,0.00
2013-7-30,97.8,85.1,75.8,61.0,59.1,54.0,59,43,25,29.85,29.75,6,1,14,0.00
2013-7-31,99.8,86.6,76.2,62.0,58.3,51.0,58,40,25,29.88,29.72,8,0,19,0.00
2013-8-1,94.9,87.0,77.0,63.0,57.7,52.0,61,38,23,29.84,29.67,7,1,13,0.00
2013-8-2,96.4,86.8,75.5,63.0,59.8,56.0,62,42,27,29.74,29.61,7,1,13,0.00
2013-8-3,97.9,87.4,78.6,62.0,58.8,55.0,52,39,26,29.75,29.63,4,1,12,0.00
2013-8-4,98.9,88.2,78.0,61.0,57.3,52.0,54,37,23,29.76,29.60,7,1,13,0.00
2013-8-5,97.3,85.4,73.0,64.0,55.1,-99.9,72,38,24,29.73,29.60,11,2,21,0.28
2013-8-6,95.7,83.8,74.4,61.0,56.9,53.0,58,41,27,29.77,29.64,9,2,14,0.00
2013-8-7,91.1,82.4,74.5,60.0,56.9,53.0,57,43,29,29.78,29.64,10,2,18,0.00
2013-8-8,97.1,84.7,71.6,57.0,53.3,47.0,58,36,20,29.75,29.61,3,0,13,0.00
2013-8-9,97.8,85.7,72.7,56.0,50.3,46.0,42,30,19,29.76,29.65,10,1,14,0.00
2013-8-10,87.0,80.0,75.1,65.0,58.4,53.0,62,48,37,29.92,29.77,8,2,16,0.04
2013-8-11,93.4,80.0,66.7,64.0,59.1,54.0,83,53,28,29.93,29.74,9,3,16,0.00
2013-8-12,96.0,85.6,75.2,61.0,58.5,57.0,55,41,27,29.81,29.66,8,1,14,0.00
2013-8-13,97.1,86.4,75.9,62.0,59.2,53.0,60,41,29,29.79,29.66,12,1,12,0.00
2013-8-14,95.0,84.6,75.0,62.0,58.4,56.0,55,42,28,29.84,29.66,7,1,15,0.00
2013-8-15,98.3,82.4,73.0,64.0,59.3,55.0,73,48,26,29.85,29.71,9,1,16,0.04
2013-8-16,98.4,84.8,70.9,62.0,56.4,48.0,70,41,22,29.85,29.72,12,1,29,0.00
2013-8-17,101.6,87.2,74.1,57.0,52.0,47.0,53,32,16,29.82,29.65,8,1,16,0.00
2013-8-18,100.7,85.8,74.8,59.0,53.5,49.0,48,34,20,29.80,29.65,5,1,17,0.11
2013-8-19,97.3,84.7,73.8,57.0,53.0,41.0,51,36,16,29.79,29.66,5,1,15,0.00
2013-8-20,95.8,85.4,74.0,58.0,52.4,47.0,56,34,21,29.76,29.63,11,1,13,0.00
2013-8-21,95.6,84.8,73.6,57.0,49.2,37.0,53,31,18,29.79,29.66,8,2,15,0.00
2013-8-22,93.6,83.9,72.0,56.0,49.6,42.0,50,32,17,29.83,29.66,6,2,14,0.00
2013-8-23,92.2,80.6,72.6,57.0,55.1,50.0,54,43,24,29.80,29.66,19,3,23,0.00
2013-8-24,88.5,80.2,71.9,60.0,57.5,55.0,61,47,33,29.84,29.71,12,2,13,0.00
2013-8-25,93.3,83.7,72.9,58.0,55.9,53.0,57,40,26,29.88,29.74,12,4,18,0.00
2013-8-26,91.7,83.1,73.8,58.0,55.4,53.0,54,40,27,29.88,29.73,11,4,22,0.00
2013-8-27,87.0,78.6,72.4,66.0,59.0,55.0,78,52,36,29.83,29.71,10,2,19,0.12
2013-8-28,79.8,75.7,72.5,66.0,63.5,61.0,76,66,55,29.89,29.76,4,0,8,0.00
2013-8-29,81.2,73.5,66.6,67.0,65.4,64.0,94,77,57,29.98,29.88,7,1,8,0.59
2013-8-30,92.4,79.5,67.8,68.0,64.3,60.0,92,63,34,29.93,29.74,5,0,8,0.00
2013-8-31,97.3,84.1,72.2,65.0,61.0,54.0,76,49,27,29.77,29.61,3,0,9,0.00
2013-9-1,98.9,86.3,73.5,62.0,54.8,45.0,63,37,16,29.69,29.58,3,0,11,0.00
2013-9-2,94.8,84.6,75.7,59.0,55.8,50.0,52,38,27,29.78,29.63,13,2,24,0.00
2013-9-3,93.7,83.9,75.8,61.0,55.4,46.0,58,40,21,29.83,29.68,6,1,17,0.00
2013-9-4,92.7,82.9,72.6,56.0,53.2,50.0,52,37,26,29.87,29.75,12,2,14,0.00
2013-9-5,93.3,84.2,73.0,56.0,50.5,44.0,52,33,19,29.89,29.76,8,1,15,0.00
2013-9-6,93.0,84.0,74.0,57.0,54.8,52.0,52,38,25,29.87,29.68,7,1,13,0.00
2013-9-7,92.7,83.8,74.0,57.0,54.1,50.0,52,37,27,29.80,29.64,8,1,11,0.00
2013-9-8,92.5,83.2,74.9,57.0,53.4,48.0,52,37,25,29.73,29.55,11,1,15,0.00
2013-9-9,88.0,77.5,70.9,65.0,58.7,55.0,67,53,35,29.67,29.57,10,1,26,0.00
2013-9-10,79.4,70.7,66.7,66.0,65.1,61.0,94,83,57,29.82,29.67,9,1,17,0.84
2013-9-11,79.1,71.6,67.9,71.0,67.5,66.0,96,87,65,29.86,29.77,5,0,7,0.15
2013-9-12,70.9,67.7,65.7,67.0,65.7,63.0,97,93,85,29.87,29.79,8,1,12,1.61
2013-9-13,74.2,68.6,66.1,67.0,65.3,64.0,95,89,77,29.84,29.71,6,1,13,0.25
2013-9-14,84.7,74.3,65.6,66.0,59.9,55.0,93,65,37,29.80,29.67,3,0,10,0.01
2013-9-15,85.7,75.8,65.2,63.0,58.6,55.0,78,56,39,29.79,29.70,16,1,16,0.00
2013-9-16,84.1,75.0,66.1,64.0,60.8,58.0,80,63,43,29.89,29.77,9,1,17,0.00
2013-9-17,85.2,76.1,67.8,64.0,61.6,58.0,83,62,44,29.86,29.68,11,2,13,0.00
2013-9-18,87.5,77.4,68.2,63.0,61.0,59.0,78,58,40,29.77,29.59,8,1,12,0.00
2013-9-19,85.3,75.2,69.1,70.0,63.7,61.0,85,68,49,29.72,29.59,13,1,20,0.18
2013-9-20,83.3,73.7,65.1,67.0,60.6,56.0,90,66,40,29.85,29.69,9,2,16,0.00
2013-9-21,80.1,70.9,62.7,60.0,56.3,53.0,82,62,41,29.90,29.73,9,1,11,0.00
2013-9-22,85.6,74.0,62.0,56.0,53.7,50.0,78,52,30,29.75,29.50,7,1,12,0.00
2013-9-23,87.1,77.2,68.1,57.0,46.5,40.0,58,35,21,29.75,29.56,13,0,15,0.00
2013-9-24,88.5,73.4,60.4,44.0,40.9,38.0,48,33,19,29.91,29.76,6,0,9,0.00
2013-9-25,90.5,76.6,61.4,55.0,47.4,41.0,51,37,25,29.77,29.52,13,2,17,0.00
2013-9-26,88.7,79.3,65.8,56.0,50.1,44.0,61,38,23,29.65,29.51,7,1,14,0.00
2013-9-27,87.7,78.2,71.0,60.0,53.4,43.0,67,44,25,29.68,29.49,10,2,20,0.00
2013-9-28,78.8,68.6,58.4,45.0,32.0,24.0,41,27,18,30.00,29.68,9,2,14,0.00
2013-9-29,83.8,68.6,53.6,44.0,37.5,26.0,51,33,19,30.05,29.86,7,0,10,0.00
2013-9-30,90.2,73.5,58.5,45.0,37.4,29.0,47,29,14,29.87,29.68,7,0,17,0.00
2013-10-1,91.0,75.2,59.0,39.0,32.6,26.0,38,23,10,29.79,29.68,11,1,16,0.00
2013-10-2,89.5,75.5,61.8,44.0,37.6,31.0,39,26,18,29.79,29.66,7,1,14,0.00
2013-10-3,86.5,74.4,61.9,44.0,39.4,33.0,47,30,15,29.74,29.60,11,2,18,0.00
2013-10-4,85.9,75.2,67.3,47.0,42.0,36.0,45,32,19,29.75,29.64,11,2,17,0.00
2013-10-5,77.5,64.6,54.4,40.0,26.2,20.0,36,24,17,30.04,29.75,8,2,17,0.00
2013-10-6,76.6,63.2,47.7,33.0,27.9,21.0,44,27,18,30.16,30.03,6,1,10,0.00
2013-10-7,81.7,65.9,49.7,34.0,31.3,28.0,46,29,16,30.13,29.92,5,0,9,0.00
2013-10-8,85.2,70.1,55.4,44.0,34.7,23.0,39,28,19,29.92,29.68,9,1,13,0.00
2013-10-9,85.1,72.5,58.7,44.0,39.1,35.0,43,31,20,29.79,29.63,10,1,17,0.00
2013-10-10,83.1,73.0,64.3,47.0,40.2,34.0,50,32,18,29.72,29.57,18,6,30,0.00
2013-10-11,77.1,66.1,55.5,42.0,38.5,35.0,49,37,27,29.84,29.71,9,1,17,0.00
2013-10-12,82.4,68.0,51.4,43.0,39.2,32.0,56,37,23,29.95,29.80,9,1,11,0.00
2013-10-13,80.8,71.8,61.7,56.0,47.9,41.0,61,44,31,29.90,29.78,7,1,11,0.00
2013-10-14,78.3,72.2,66.2,50.0,48.2,47.0,51,43,36,29.85,29.74,11,3,18,0.00
2013-10-15,70.8,65.9,56.0,56.0,49.6,42.0,63,56,47,29.85,29.74,9,2,13,0.00
2013-10-16,76.8,63.5,55.7,52.0,41.3,25.0,75,50,19,29.97,29.85,8,1,15,0.00
2013-10-17,78.0,62.5,47.7,39.0,31.2,27.0,54,33,18,29.98,29.80,9,1,14,0.00
2013-10-18,78.7,62.9,49.2,33.0,27.7,24.0,45,29,14,29.98,29.80,8,1,14,0.00
2013-10-19,74.0,58.0,44.2,36.0,32.3,29.0,58,40,22,30.11,29.92,8,1,13,0.00
2013-10-20,78.8,62.3,46.7,36.0,29.9,22.0,54,32,14,29.94,29.74,7,1,14,0.00
2013-10-21,71.6,60.2,49.0,37.0,31.2,20.0,49,34,25,30.05,29.80,8,2,13,0.00
2013-10-22,76.7,61.4,47.6,41.0,37.1,32.0,64,43,24,30.14,29.98,7,0,9,0.00
2013-10-23,79.6,64.3,48.4,40.0,34.7,31.0,51,35,21,30.06,29.89,7,1,9,0.00
2013-10-24,82.8,69.5,53.3,45.0,38.7,32.0,46,33,25,30.01,29.83,10,1,13,0.00
2013-10-25,79.6,68.6,58.2,45.0,42.0,37.0,59,39,26,29.99,29.84,8,2,15,0.00
2013-10-26,78.0,64.4,51.8,47.0,41.3,32.0,74,47,19,30.06,29.92,8,1,13,0.00
2013-10-27,77.1,64.2,50.9,45.0,41.1,37.0,60,44,31,30.05,29.77,3,0,9,0.00
2013-10-28,78.0,68.0,56.8,44.0,37.0,26.0,61,36,18,29.84,29.73,13,2,21,0.00
2013-10-29,74.2,68.1,63.7,36.0,31.2,28.0,30,26,20,29.86,29.73,7,1,17,0.00
2013-10-30,70.2,64.6,58.9,53.0,43.5,32.0,61,47,29,29.82,29.68,17,3,30,0.10
2013-10-31,70.3,59.4,47.4,31.0,24.2,16.0,46,28,14,29.99,29.82,10,1,16,0.00
2013-11-1,72.1,59.5,46.4,31.0,25.5,17.0,39,28,19,30.10,29.91,7,0,11,0.00
2013-11-2,72.4,58.1,42.3,27.0,25.3,21.0,48,30,18,30.21,29.94,7,1,14,0.00
2013-11-3,75.0,62.9,52.1,50.0,33.9,22.0,75,36,21,29.94,29.67,10,2,14,0.00
2013-11-4,73.4,62.8,53.0,53.0,49.5,45.0,87,64,39,29.79,29.65,8,1,11,0.00
2013-11-5,71.5,62.3,54.3,51.0,43.1,34.0,78,51,35,30.01,29.70,7,1,19,0.00
2013-11-6,64.9,53.3,42.9,34.0,19.2,8.0,50,29,17,30.30,30.01,8,2,15,0.00
2013-11-7,68.2,53.6,37.9,26.0,17.9,9.0,33,25,13,30.40,30.19,9,1,11,0.00
2013-11-8,73.1,58.5,46.9,46.0,36.4,22.0,73,45,31,30.19,29.93,5,0,10,0.00
2013-11-9,75.1,59.4,48.2,48.0,42.0,35.0,88,57,27,30.08,29.98,6,1,10,0.00
2013-11-10,77.7,60.8,44.4,40.0,35.3,32.0,62,41,22,30.17,30.02,4,0,8,0.00
2013-11-11,78.1,62.7,47.4,44.0,37.7,31.0,54,41,30,30.12,29.98,4,0,9,0.00
2013-11-12,58.9,53.2,44.4,45.0,38.6,35.0,72,59,47,30.49,30.10,15,3,18,0.00
2013-11-13,61.2,51.2,44.2,42.0,37.9,33.0,74,61,49,30.48,30.10,6,1,13,0.01
2013-11-14,68.9,56.9,45.9,47.0,42.1,39.0,78,59,38,30.09,29.86,6,0,11,0.00
2013-11-15,70.4,59.2,50.1,50.0,46.0,41.0,80,63,44,29.87,29.66,9,2,21,0.00
2013-11-16,74.4,64.6,56.3,50.0,47.1,42.0,78,55,32,29.72,29.58,15,6,24,0.00
2013-11-17,71.1,61.7,53.4,46.0,41.6,37.0,69,49,32,29.97,29.72,13,2,21,0.00
2013-11-18,71.8,60.5,52.4,42.0,39.2,37.0,58,46,32,30.07,29.94,2,0,7,0.00
2013-11-19,73.9,60.3,46.4,45.0,40.0,35.0,65,49,32,29.96,29.76,7,1,12,0.00
2013-11-20,72.5,61.6,52.6,46.0,41.3,38.0,62,48,34,29.82,29.69,7,0,11,0.00
2013-11-21,73.4,63.8,51.6,44.0,40.4,36.0,66,44,30,29.89,29.78,6,1,12,0.00
2013-11-22,62.4,41.0,35.0,38.0,28.2,24.0,68,61,40,30.37,29.86,14,6,21,0.00
2013-11-23,39.2,36.0,32.0,29.0,27.1,24.0,81,70,62,30.50,30.36,16,5,19,0.00
2013-11-24,35.7,32.7,29.4,29.0,26.0,24.0,83,76,69,30.42,30.27,11,2,17,0.00
2013-11-25,48.5,39.4,34.4,33.0,30.5,28.0,81,71,55,30.35,30.20,9,1,14,0.00
2013-11-26,55.5,42.1,30.8,31.0,26.9,23.0,84,58,34,30.49,30.36,2,0,9,0.00
2013-11-27,51.0,41.7,31.4,26.0,23.9,21.0,67,51,33,30.44,30.22,5,1,9,0.00
2013-11-28,59.0,44.5,30.3,28.0,25.7,22.0,75,51,30,30.31,30.18,2,0,7,0.00
2013-11-29,65.8,49.5,34.9,37.0,31.1,24.0,69,51,34,30.33,30.16,3,0,7,0.00
2013-11-30,66.4,52.5,40.1,40.0,35.3,31.0,71,54,38,30.24,30.09,2,0,7,0.00
2013-12-1,57.7,52.0,47.8,40.0,37.2,34.0,68,58,50,30.17,30.06,1,0,4,0.00
2013-12-2,68.0,53.8,38.7,38.0,30.0,19.0,80,46,20,30.07,29.82,7,0,14,0.00
2013-12-3,73.0,59.7,46.6,40.0,27.1,19.0,48,30,18,29.82,29.62,13,1,20,0.00
2013-12-4,71.1,62.7,56.0,44.0,38.6,29.0,59,43,26,29.72,29.57,20,7,29,0.00
2013-12-5,56.5,51.1,45.6,49.0,42.9,37.0,90,75,49,29.90,29.68,11,2,22,0.24
2013-12-6,52.6,43.7,33.7,37.0,31.2,27.0,83,63,41,30.13,29.90,6,1,12,0.00
2013-12-7,41.8,34.8,31.4,33.0,29.5,27.0,86,81,71,30.18,30.01,9,2,12,0.00
2013-12-8,58.1,43.1,30.9,33.0,27.6,23.0,90,60,28,30.10,29.97,12,1,18,0.01
2013-12-9,57.5,43.5,34.1,33.0,23.1,7.0,75,48,21,30.37,30.00,10,2,17,0.00
2013-12-10,50.0,37.7,26.1,9.0,4.8,0.0,34,26,19,30.43,30.25,8,2,10,0.00
2013-12-11,56.1,42.4,31.9,24.0,13.7,4.0,43,32,22,30.48,30.29,11,2,13,0.00
2013-12-12,47.2,41.7,38.1,37.0,30.9,19.0,86,67,42,30.47,30.17,8,0,9,0.03
2013-12-13,59.0,46.8,36.8,39.0,35.9,33.0,92,69,39,30.16,29.96,13,2,20,0.02
2013-12-14,54.5,45.3,37.1,34.0,28.7,25.0,79,55,32,30.37,30.04,6,1,10,0.00
2013-12-15,56.5,43.8,30.7,27.0,24.9,23.0,75,50,30,30.40,30.27,5,0,11,0.00
2013-12-16,61.0,46.4,31.5,27.0,25.1,23.0,72,46,27,30.37,30.23,5,0,9,0.00
2013-12-17,66.7,50.5,35.4,29.0,26.2,23.0,62,41,23,30.36,30.19,3,0,7,0.00
2013-12-18,62.1,49.6,35.4,29.0,26.7,22.0,60,43,28,30.21,29.90,4,0,6,0.00
2013-12-19,69.6,56.4,41.6,29.0,25.1,20.0,55,33,15,29.89,29.65,7,1,21,0.00
2013-12-20,57.0,50.9,44.0,48.0,36.1,22.0,82,59,28,29.70,29.52,10,1,21,0.03
2013-12-21,48.2,43.3,37.3,34.0,31.9,29.0,84,65,52,29.94,29.60,15,5,36,0.02
2013-12-22,54.9,45.6,37.0,31.0,27.5,23.0,72,51,30,30.27,29.94,8,1,18,0.00
2013-12-23,56.0,42.1,29.7,28.0,23.2,20.0,76,51,26,30.48,30.28,5,0,8,0.00
2013-12-24,59.0,43.1,29.3,29.0,24.4,19.0,67,49,32,30.43,30.17,4,0,7,0.00
2013-12-25,53.6,43.9,34.4,30.0,27.8,24.0,68,54,39,30.40,30.21,6,1,12,0.00
2013-12-26,53.3,41.6,30.7,29.0,25.4,23.0,73,55,35,30.42,30.25,1,0,8,0.00
2013-12-27,55.5,42.3,29.4,30.0,24.6,20.0,73,52,31,30.41,30.26,3,0,8,0.00
2013-12-28,56.1,44.0,30.9,32.0,26.0,20.0,67,50,39,30.26,29.96,8,1,13,0.00
2013-12-29,51.2,45.0,35.2,28.0,25.1,21.0,57,46,38,30.23,29.94,11,2,13,0.00
2013-12-30,56.0,41.6,29.8,26.0,22.2,18.0,64,48,31,30.38,30.22,4,0,8,0.00
2013-12-31,58.9,44.7,32.0,25.0,22.2,18.0,58,43,27,30.37,30.15,7,0,8,0.00
2014-1-1,64.1,47.5,33.7,26.0,23.7,21.0,62,41,23,30.23,30.05,5,1,10,0.00
2014-1-2,57.8,46.9,36.9,28.0,26.1,23.0,69,46,29,30.38,30.21,9,1,15,0.00